Regional Weather Roundup
Issued by NWS New Orleans/Baton Rouge, LA

Home | Current Version | Previous Version | Text Only | Print | Product List | Glossary On
Versions: 1 2 3 4 5 6 7 8 9 10 11 12 13 14 15 16 17 18 19 20 21 22 23 24 25 26 27 28 29 30 31 32 33 34 35 36 37 38 39 40 41 42 43 44 45 46 47 48 49 50
780
ASUS44 KLIX 260011
RWRLIX
NEW ORLEANS REGIONAL WEATHER ROUNDUP
NATIONAL WEATHER SERVICE NEW ORLEANS LA
700 PM CDT MON JUL 25 2016

NOTE: "FAIR" INDICATES FEW OR NO CLOUDS BELOW 12,000 FEET WITH NO
      SIGNIFICANT WEATHER AND/OR OBSTRUCTIONS TO VISIBILITY.
      SKY/WX - SKY CONDITION AND SIGNIFICANT WEATHER.
      TMP - AIR TEMPERATURE.     DP    - DEWPOINT TEMPERATURE.
      RH  - RELATIVE HUMIDITY.   PRES  - PRESSURE.
      HI  - HEAT INDEX.          WCI   - WIND CHILL INDEX.

*  THESE STATIONS ARE NOT NWS OR FAA STATIONS AND ARE NOT UNDER
   NWS QUALITY CONTROL.

LAZ038-040-048-061>063-065>067-069-260100-
SOUTHEAST LOUISIANA

CITY           SKY/WX    TMP DP  RH WIND       PRES   REMARKS
N.O. AUDUBON     N/A     87  76  71 MISG        N/A  HX  97
6HR MIN TEMP:  81; 6HR MAX TEMP:  94; 6HR PCP:  0.06;

N.O. INTL ARPT PTSUNNY   85  76  74 SE5       29.91S
6HR MIN TEMP:  82; 6HR MAX TEMP:  94; 6HR PCP:  0.02;

N.O. LAKEFRONT MOSUNNY   84  76  76 S6        29.91S
6HR MIN TEMP:  83; 6HR MAX TEMP:  90; 6HR PCP: TRACE;

N.O. DOWNTOWN*   N/A     84  77  79 S6        29.92S
6HR MIN TEMP:  80; 6HR MAX TEMP:  91;

RESERVE*       RAIN      83  78  82 SE3       29.93R
6HR MIN TEMP:  78; 6HR MAX TEMP:  93;

SLIDELL        MOSUNNY   86  76  71 SE8       29.91R HX  96
6HR MIN TEMP:  85; 6HR MAX TEMP:  92; 6HR PCP: TRACE;

BATON ROUGE    CLOUDY    81  75  82 CALM      29.92S
6HR MIN TEMP:  79; 6HR MAX TEMP:  95; 6HR PCP:  0.08;

BOOTHVILLE     PTSUNNY   85  75  72 S7        29.91S
6HR MIN TEMP:  77; 6HR MAX TEMP:  88; 6HR PCP:  0.87;

BELLE CHASSE   PTSUNNY   83  75  77 SE7       29.91S
6HR MIN TEMP:  81; 6HR MAX TEMP:  89;

BOGALUSA*      MOCLDY    88  74  63 S3        29.94R HX  97
6HR MIN TEMP:  81; 6HR MAX TEMP:  92; 6HR PCP:  0.05;

GALLIANO*      PTCLDY    83  76  79 CALM      29.90S
6HR MIN TEMP:  83; 6HR MAX TEMP:  91;

NEW ROADS*     MOCLDY    78  76  91 CALM      29.94R
6HR MIN TEMP:  77; 6HR MAX TEMP:  92; 6HR PCP:  0.30;

GONZALES*      TSTM      80  75  84 CALM      29.93R
6HR MIN TEMP:  79; 6HR MAX TEMP:  91; 6HR PCP:  0.02;

HAMMOND*       TSTM      81  77  89 NW3       29.93R
HOUMA*         PTSUNNY   81  77  89 NW6       29.91S
PORT FOURCHON* PTCLDY    84  77  79 SW7       29.90S

$$

MSZ070-080>082-260100-
SOUTHERN MISSISSIPPI

CITY           SKY/WX    TMP DP  RH WIND       PRES   REMARKS
MCCOMB         CLOUDY    79  73  82 CALM      29.95R
6HR MIN TEMP:  75; 6HR MAX TEMP:  93; 6HR PCP:  0.14;

GULFPORT       PTSUNNY   86  76  71 SE16      29.91S HX  96
6HR MIN TEMP:  86; 6HR MAX TEMP:  91; 6HR PCP: TRACE;

BILOXI         PTSUNNY   87  76  69 S12       29.91S HX  98
6HR MIN TEMP:  87; 6HR MAX TEMP:  91;

PASCAGOULA     PTCLDY    86  77  74 SE10      29.93R HX  97
6HR MIN TEMP:  86; 6HR MAX TEMP:  91;

STENNIS ARPT*  PTSUNNY   82  72  69 MISG      29.91S

$$

COASTAL OBSERVATIONS
LAKE AND NEARSHORE STATIONS

STATION/POSITION TIME  TEMP    WIND        PRES    WAVE
                       AIR SEA DIR/SP/G            HT/PER
                 (UTC) (F)     (DEG/KT/KT) (MB)    (FT/S)
PASCAGOULA       2300   88                   N/A
WAVELAND YACHT   2300   87 89                N/A
GRAND ISLE       2300   85 89                N/A
SOUTHWEST PASS   2300          190/  4/  5   N/A
NEW CANAL        2300   81 89                N/A
SHELL BEACH      2300   85 89                N/A

OFFSHORE STATIONS

STATION/POSITION TIME  TEMP    WIND        PRES    WAVE
                       AIR SEA DIR/SP/G            HT/PER
                 (UTC) (F)     (DEG/KT/KT) (MB)    (FT/S)
64 S DAUPHIN ISL 2300   85 88  170/ 10/ 12 1012.9

$$





USA.gov is the U.S. government's official web portal to all federal, state and local government web resources and services.